Weather History for Skagway, AK

Change the Weather History Date:

Friday, December 27, 2013

  Actual Average Record
Temperature  
Mean Temperature 16 °F -  
Max Temperature 19 °F 29 °F 46 °F (1999)
Min Temperature 15 °F 21 °F -1 °F (1965)
Degree Days  
Heating Degree Days 48    
Moisture  
Dew Point 1 °F    
Average Humidity 52    
Maximum Humidity 61    
Minimum Humidity 47    
Precipitation  
Precipitation 0.00 in - - ()
Sea Level Pressure  
Sea Level Pressure 30.16 in    
Wind  
Wind Speed 24 mph (NE)    
Max Wind Speed 29 mph    
Max Gust Speed 44 mph    
Visibility 7 miles    
Events Snow    
Averages and records for this station are not official NWS values.
T = Trace of Precipitation, MM = Missing Value Source: NWS Daily Summary

Daily Weather History Graph

Daily Weather History Graph

Search for Another Location

Airport:

Trip Planner

Search our weather history database for the weather conditions in past years. The results will help you decide how hot, cold, wet, or windy it might be!

Date:

Astronomy

Dec. 27, 2013 Rise Set
Actual Time 8:59 AM AKST 3:05 PM AKST
Civil Twilight 8:04 AM AKST 4:01 PM AKST
Nautical Twilight 7:08 AM AKST 4:56 PM AKST
Astronomical Twilight 6:18 AM AKST 5:47 PM AKST
Moon 2:46 AM AKST 12:09 PM AKST
Length of Visible Light 7h 57m
Length of Day
6h 05m
Waning Crescent, 27% of the Moon is Illuminated
Dec 27
Waning Crescent
Jan 1
New
Jan 7
First Quarter
Jan 15
Full
Jan 23
Last Quarter

Hourly Weather History & Observations

Time (AKST) Temp. Windchill Dew Point Humidity Pressure Visibility Wind Dir Wind Speed Gust Speed Precip Events Conditions
12:53 AM 18.0 °F 0.9 °F 5.0 °F 57% 29.88 in 5.0 mi NE 21.9 mph 32.2 mph 0.00 in Snow Light Snow
1:53 AM 18.0 °F -0.2 °F 3.9 °F 54% 29.89 in 5.0 mi NE 25.3 mph 35.7 mph 0.00 in Snow Light Snow
3:53 AM 17.1 °F -0.3 °F 3.0 °F 54% 29.94 in 7.0 mi NNE 21.9 mph 38.0 mph 0.00 in Snow Light Snow
4:53 AM 17.1 °F -2.0 °F 3.9 °F 56% 29.95 in 4.0 mi NE 27.6 mph 40.3 mph 0.00 in Snow Light Snow
5:53 AM 16.0 °F -2.1 °F 1.9 °F 54% 29.98 in 8.0 mi NE 23.0 mph 43.7 mph 0.00 in   Overcast
6:53 AM 15.1 °F -4.0 °F 1.9 °F 56% 30.01 in 6.0 mi NE 25.3 mph 40.3 mph 0.00 in Snow Light Snow
7:53 AM 15.1 °F -4.4 °F 3.0 °F 59% 30.05 in 7.0 mi NE 26.5 mph 39.1 mph 0.00 in Snow Light Snow
8:53 AM 15.1 °F -2.0 °F 3.9 °F 61% 30.10 in 6.0 mi NE 19.6 mph 36.8 mph 0.00 in Snow Light Snow
9:53 AM 16.0 °F -2.8 °F 3.0 °F 57% 30.11 in 5.0 mi NE 25.3 mph 39.1 mph 0.00 in Snow Light Snow
10:06 AM 15.8 °F -3.1 °F 3.2 °F 58% 30.11 in 2.5 mi NE 25.3 mph 34.5 mph 0.00 in Snow Light Snow
10:24 AM 15.8 °F -3.1 °F 1.4 °F 53% 30.12 in 4.0 mi NE 25.3 mph 34.5 mph 0.00 in Snow Light Snow
10:33 AM 15.8 °F -4.1 °F -0.4 °F 49% 30.12 in 6.0 mi NE 28.8 mph 38.0 mph 0.00 in Snow Light Snow
10:53 AM 16.0 °F -3.2 °F -0.0 °F 49% 30.13 in 9.0 mi NE 26.5 mph 34.5 mph 0.00 in   Overcast
11:53 AM 16.0 °F -0.4 °F -0.9 °F 47% 30.17 in 9.0 mi NE 18.4 mph 39.1 mph 0.00 in Snow Light Snow
12:53 PM 16.0 °F -2.8 °F -0.9 °F 47% 30.20 in 9.0 mi NE 25.3 mph 32.2 mph 0.00 in Snow Light Snow
1:53 PM 16.0 °F -3.5 °F -0.9 °F 47% 30.22 in 8.0 mi NE 27.6 mph 40.3 mph 0.00 in Snow Light Snow
2:53 PM 16.0 °F -2.1 °F -0.0 °F 49% 30.25 in 8.0 mi NE 23.0 mph 42.6 mph 0.00 in Snow Light Snow
3:53 PM 16.0 °F -1.7 °F -0.0 °F 49% 30.26 in 9.0 mi NE 21.9 mph 36.8 mph 0.00 in Snow Light Snow
4:53 PM 16.0 °F -3.2 °F -0.0 °F 49% 30.29 in 9.0 mi NE 26.5 mph 34.5 mph 0.00 in   Overcast
5:53 PM 16.0 °F -2.5 °F -0.9 °F 47% 30.31 in 9.0 mi NE 24.2 mph 35.7 mph 0.00 in Snow Light Snow
6:53 PM 17.1 °F -1.0 °F -0.0 °F 47% 30.32 in 10.0 mi NE 24.2 mph 33.4 mph 0.00 in   Overcast
7:53 PM 17.1 °F -2.0 °F -0.0 °F 47% 30.33 in 9.0 mi NE 27.6 mph 36.8 mph 0.00 in Snow Light Snow
8:53 PM 17.1 °F -1.0 °F 1.0 °F 50% 30.35 in 10.0 mi NE 24.2 mph 31.1 mph 0.00 in   Overcast
9:53 PM 18.0 °F 2.2 °F 1.0 °F 48% 30.38 in 9.0 mi NE 18.4 mph 31.1 mph 0.00 in Snow Light Snow
10:53 PM 18.0 °F 2.2 °F 1.9 °F 50% 30.38 in 10.0 mi NE 18.4 mph - 0.00 in   Overcast
11:53 PM 19.0 °F 5.0 °F 3.9 °F 52% 30.38 in 10.0 mi NE 15.0 mph 24.2 mph N/A   Overcast